SIA961 WIII-WSSS

Flight info

Callsign SIA961
Flight time 1h 2m
Altitude 40000
Route DOLTA G579 REPOV REPOV2B
Aircraft A359/H-SDE2E3GHIJ1J3J4J5LM1ORWXY/LB1D1

Departure

Time 2026-05-07 11:40
Airport Soekarno-Hatta International Airport (WIII)

Arrival

Time 2026-05-07 12:43
Airport Singapore Changi Airport (WSSS)
Time Latitude Longitude Altitude Speed Heading
2026-05-07 10:54 -6.11842 106.66234 44 ft 0 kts 158°
2026-05-07 11:25 -6.11840 106.66233 44 ft 2 kts 158°
2026-05-07 11:25 -6.11825 106.66227 43 ft 2 kts 160°
2026-05-07 11:25 -6.11809 106.66221 43 ft 2 kts 161°
2026-05-07 11:26 -6.11793 106.66216 40 ft 2 kts 164°
2026-05-07 11:26 -6.11777 106.66212 40 ft 2 kts 169°
2026-05-07 11:26 -6.11761 106.66210 40 ft 2 kts 184°
2026-05-07 11:26 -6.11745 106.66215 42 ft 2 kts 225°
2026-05-07 11:27 -6.11738 106.66224 40 ft 1 kts 245°
2026-05-07 11:27 -6.11738 106.66225 40 ft 0 kts 245°
2026-05-07 11:27 -6.11735 106.66232 41 ft 2 kts 245°
2026-05-07 11:28 -6.11728 106.66247 40 ft 2 kts 246°
2026-05-07 11:28 -6.11721 106.66262 41 ft 2 kts 246°
2026-05-07 11:28 -6.11715 106.66277 42 ft 2 kts 246°
2026-05-07 11:28 -6.11708 106.66292 41 ft 2 kts 246°
2026-05-07 11:29 -6.11702 106.66307 40 ft 2 kts 246°
2026-05-07 11:29 -6.11695 106.66322 41 ft 2 kts 247°
2026-05-07 11:29 -6.11689 106.66337 41 ft 2 kts 247°
2026-05-07 11:29 -6.11682 106.66353 41 ft 2 kts 248°
2026-05-07 11:30 -6.11676 106.66368 44 ft 2 kts 248°
2026-05-07 11:30 -6.11670 106.66383 42 ft 2 kts 249°
2026-05-07 11:30 -6.11665 106.66399 43 ft 2 kts 250°
2026-05-07 11:30 -6.11659 106.66415 41 ft 2 kts 251°
2026-05-07 11:31 -6.11654 106.66430 40 ft 2 kts 254°
2026-05-07 11:31 -6.11650 106.66446 42 ft 2 kts 255°
2026-05-07 11:31 -6.11649 106.66450 42 ft 0 kts 252°
2026-05-07 11:33 -6.11648 106.66425 41 ft 7 kts 285°
2026-05-07 11:33 -6.11622 106.66406 44 ft 5 kts 333°
2026-05-07 11:33 -6.11581 106.66387 44 ft 9 kts 337°
2026-05-07 11:34 -6.11505 106.66356 44 ft 15 kts 338°
2026-05-07 11:34 -6.11398 106.66314 45 ft 18 kts 338°
2026-05-07 11:34 -6.11363 106.66228 45 ft 14 kts 251°
2026-05-07 11:34 -6.11404 106.66122 45 ft 19 kts 248°
2026-05-07 11:35 -6.11461 106.65974 44 ft 26 kts 249°
2026-05-07 11:35 -6.11536 106.65791 44 ft 30 kts 247°
2026-05-07 11:35 -6.11615 106.65595 44 ft 31 kts 249°
2026-05-07 11:35 -6.11694 106.65392 45 ft 32 kts 248°
2026-05-07 11:36 -6.11779 106.65179 45 ft 33 kts 248°
2026-05-07 11:36 -6.11868 106.64961 45 ft 32 kts 248°
2026-05-07 11:36 -6.11936 106.64787 45 ft 27 kts 248°
2026-05-07 11:36 -6.12007 106.64607 45 ft 29 kts 248°
2026-05-07 11:37 -6.12083 106.64417 45 ft 30 kts 248°
2026-05-07 11:37 -6.12163 106.64216 45 ft 32 kts 248°
2026-05-07 11:37 -6.12246 106.64008 44 ft 29 kts 248°
2026-05-07 11:37 -6.12248 106.63925 46 ft 10 kts 297°
2026-05-07 11:38 -6.12226 106.63902 47 ft 0 kts 321°
2026-05-07 11:38 -6.12225 106.63901 47 ft 1 kts 321°
2026-05-07 11:39 -6.12198 106.63886 20 ft 6 kts 342°
2026-05-07 11:39 -6.12138 106.63906 48 ft 14 kts 25°
2026-05-07 11:39 -6.12053 106.63999 47 ft 24 kts 71°
2026-05-07 11:39 -6.11912 106.64350 46 ft 90 kts 68°
2026-05-07 11:40 -6.11602 106.65126 48 ft 151 kts 68°
2026-05-07 11:40 -6.11195 106.66176 590 ft 159 kts 70°
2026-05-07 11:40 -6.10847 106.67232 1305 ft 164 kts 75°
2026-05-07 11:40 -6.10470 106.68368 1561 ft 183 kts 69°
2026-05-07 11:41 -6.09482 106.69310 1650 ft 214 kts 26°
2026-05-07 11:41 -6.08010 106.69834 1938 ft 235 kts 22°
2026-05-07 11:41 -6.06448 106.70491 2294 ft 250 kts 29°
2026-05-07 11:41 -6.04790 106.71144 2784 ft 262 kts 16°
2026-05-07 11:42 -6.02950 106.71212 3378 ft 271 kts 353°
2026-05-07 11:42 -6.01110 106.70751 4015 ft 275 kts 344°
2026-05-07 11:42 -5.99339 106.70060 4651 ft 279 kts 339°
2026-05-07 11:42 -5.97569 106.69231 5212 ft 283 kts 336°
2026-05-07 11:43 -5.95797 106.68345 5816 ft 286 kts 335°
2026-05-07 11:43 -5.94009 106.67447 6418 ft 288 kts 336°
2026-05-07 11:43 -5.92205 106.66560 7001 ft 290 kts 336°
2026-05-07 11:43 -5.90380 106.65686 7569 ft 292 kts 337°
2026-05-07 11:44 -5.88530 106.64819 8105 ft 295 kts 338°
2026-05-07 11:44 -5.86655 106.63965 8662 ft 298 kts 338°
2026-05-07 11:44 -5.84740 106.63132 9198 ft 301 kts 339°
2026-05-07 11:44 -5.82820 106.62287 9801 ft 302 kts 337°
2026-05-07 11:45 -5.80932 106.61400 10284 ft 307 kts 337°
2026-05-07 11:45 -5.78949 106.60458 10442 ft 323 kts 336°
2026-05-07 11:45 -5.76879 106.59452 10624 ft 338 kts 335°
2026-05-07 11:45 -5.74733 106.58390 10811 ft 350 kts 335°
2026-05-07 11:46 -5.72505 106.57307 11002 ft 361 kts 337°
2026-05-07 11:46 -5.70188 106.56258 11269 ft 368 kts 338°
2026-05-07 11:46 -5.67833 106.55212 11636 ft 372 kts 339°
2026-05-07 11:46 -5.65448 106.54169 12025 ft 375 kts 339°
2026-05-07 11:47 -5.63083 106.53137 12423 ft 377 kts 339°
2026-05-07 11:47 -5.60674 106.52072 12814 ft 380 kts 338°
2026-05-07 11:47 -5.58256 106.50983 13202 ft 382 kts 338°
2026-05-07 11:47 -5.55831 106.49879 13587 ft 384 kts 338°
2026-05-07 11:48 -5.53395 106.48762 13928 ft 386 kts 338°
2026-05-07 11:48 -5.50950 106.47630 14272 ft 388 kts 338°
2026-05-07 11:48 -5.48497 106.46491 14615 ft 389 kts 337°
2026-05-07 11:48 -5.46032 106.45347 14964 ft 391 kts 337°
2026-05-07 11:49 -5.43555 106.44194 15311 ft 393 kts 337°
2026-05-07 11:49 -5.41073 106.43037 15659 ft 395 kts 337°
2026-05-07 11:49 -5.38571 106.41876 15989 ft 397 kts 337°
2026-05-07 11:49 -5.36085 106.40727 16329 ft 399 kts 337°
2026-05-07 11:50 -5.33560 106.39564 16664 ft 401 kts 337°
2026-05-07 11:50 -5.31017 106.38394 17004 ft 403 kts 337°
2026-05-07 11:50 -5.28464 106.37219 17339 ft 405 kts 337°
2026-05-07 11:50 -5.25906 106.36027 17665 ft 407 kts 336°
2026-05-07 11:51 -5.23332 106.34819 17990 ft 409 kts 336°
2026-05-07 11:51 -5.20748 106.33611 18284 ft 411 kts 337°
2026-05-07 11:51 -5.18140 106.32420 18567 ft 412 kts 338°
2026-05-07 11:51 -5.15518 106.31237 18856 ft 414 kts 338°
2026-05-07 11:52 -5.12926 106.30066 19144 ft 415 kts 338°
2026-05-07 11:52 -5.10289 106.28869 19425 ft 416 kts 338°
2026-05-07 11:52 -5.07563 106.27627 19719 ft 418 kts 338°
2026-05-07 11:52 -4.96906 106.22742 20822 ft 424 kts 338°
2026-05-07 11:53 -4.86092 106.17781 21874 ft 430 kts 338°
2026-05-07 11:53 -4.75135 106.12757 22851 ft 436 kts 338°
2026-05-07 11:53 -4.64039 106.07674 23724 ft 442 kts 338°
2026-05-07 11:53 -4.52785 106.02518 24514 ft 447 kts 338°
2026-05-07 11:54 -4.41577 105.97383 25289 ft 452 kts 338°
2026-05-07 11:54 -4.30081 105.92122 26054 ft 457 kts 338°
2026-05-07 11:54 -4.18455 105.86801 26892 ft 462 kts 337°
2026-05-07 11:54 -4.06669 105.81409 27735 ft 468 kts 337°
2026-05-07 11:55 -3.94739 105.75952 28594 ft 474 kts 337°
2026-05-07 11:55 -3.82643 105.70422 29422 ft 481 kts 337°
2026-05-07 11:55 -3.70407 105.64829 30249 ft 487 kts 337°
2026-05-07 11:55 -3.58033 105.59142 31096 ft 492 kts 337°
2026-05-07 11:56 -3.45521 105.53416 31868 ft 497 kts 337°
2026-05-07 11:56 -3.32872 105.47641 32546 ft 503 kts 336°
2026-05-07 11:56 -3.20235 105.41873 33155 ft 509 kts 336°
2026-05-07 11:56 -3.07302 105.35968 33932 ft 510 kts 336°
2026-05-07 11:57 -2.94435 105.30096 34893 ft 507 kts 337°
2026-05-07 11:57 -2.81618 105.24268 35992 ft 504 kts 337°
2026-05-07 11:57 -2.68908 105.18495 37150 ft 500 kts 337°
2026-05-07 11:57 -2.56321 105.12741 38310 ft 496 kts 336°
2026-05-07 11:58 -2.43783 105.06994 39246 ft 493 kts 336°
2026-05-07 11:58 -2.36370 105.03604 39756 ft 492 kts 337°
2026-05-07 11:58 -2.33250 105.02186 39817 ft 492 kts 337°
2026-05-07 11:59 -2.27061 104.99373 39822 ft 492 kts 337°
2026-05-07 11:59 -2.20835 104.96536 39822 ft 492 kts 337°
2026-05-07 12:00 -2.14596 104.93695 39820 ft 493 kts 337°
2026-05-07 12:00 -2.08364 104.90853 39818 ft 493 kts 336°
2026-05-07 12:01 -2.02170 104.88018 39819 ft 493 kts 336°
2026-05-07 12:01 -1.95927 104.85176 39821 ft 493 kts 336°
2026-05-07 12:02 -1.89684 104.82337 39826 ft 493 kts 336°
2026-05-07 12:02 -1.83446 104.79493 39823 ft 493 kts 336°
2026-05-07 12:03 -1.77196 104.76644 39819 ft 493 kts 336°
2026-05-07 12:03 -1.70989 104.73823 39819 ft 494 kts 337°
2026-05-07 12:04 -1.64735 104.70983 39822 ft 494 kts 337°
2026-05-07 12:04 -1.58478 104.68136 39824 ft 494 kts 337°
2026-05-07 12:05 -1.52212 104.65282 39819 ft 495 kts 337°
2026-05-07 12:05 -1.45938 104.62437 39821 ft 496 kts 336°
2026-05-07 12:06 -1.39705 104.59595 39817 ft 496 kts 336°
2026-05-07 12:06 -1.33428 104.56718 39812 ft 497 kts 336°
2026-05-07 12:07 -1.27141 104.53844 39816 ft 497 kts 336°
2026-05-07 12:07 -1.20847 104.50977 39816 ft 497 kts 336°
2026-05-07 12:08 -1.14551 104.48111 39816 ft 497 kts 336°
2026-05-07 12:08 -1.08304 104.45269 39814 ft 496 kts 336°
2026-05-07 12:09 -1.02021 104.42409 39819 ft 496 kts 336°
2026-05-07 12:09 -0.95746 104.39549 39818 ft 496 kts 336°
2026-05-07 12:10 -0.89474 104.36686 39819 ft 495 kts 336°
2026-05-07 12:10 -0.83250 104.33843 39815 ft 495 kts 336°
2026-05-07 12:11 -0.76980 104.30989 39630 ft 495 kts 337°
2026-05-07 12:11 -0.73847 104.29570 39396 ft 493 kts 336°
2026-05-07 12:11 -0.70748 104.28155 39070 ft 487 kts 336°
2026-05-07 12:11 -0.67669 104.26744 38479 ft 488 kts 336°
2026-05-07 12:12 -0.64576 104.25325 37743 ft 490 kts 336°
2026-05-07 12:12 -0.61477 104.23908 37053 ft 490 kts 336°
2026-05-07 12:12 -0.58362 104.22506 36363 ft 491 kts 338°
2026-05-07 12:12 -0.55106 104.21472 35560 ft 493 kts 348°
2026-05-07 12:13 -0.51734 104.20738 34610 ft 500 kts 349°
2026-05-07 12:13 -0.48349 104.20052 33717 ft 505 kts 349°
2026-05-07 12:13 -0.44890 104.19360 32725 ft 509 kts 350°
2026-05-07 12:13 -0.41403 104.18666 31765 ft 512 kts 350°
2026-05-07 12:14 -0.37897 104.17969 30872 ft 515 kts 349°
2026-05-07 12:14 -0.34390 104.17268 30157 ft 513 kts 349°
2026-05-07 12:14 -0.30903 104.16572 29431 ft 509 kts 349°
2026-05-07 12:14 -0.27448 104.15883 28743 ft 504 kts 350°
2026-05-07 12:15 -0.24021 104.15204 28097 ft 499 kts 350°
2026-05-07 12:15 -0.20631 104.14534 27450 ft 495 kts 350°
2026-05-07 12:15 -0.17267 104.13869 26813 ft 490 kts 350°
2026-05-07 12:15 -0.13936 104.13209 26175 ft 486 kts 350°
2026-05-07 12:16 -0.10676 104.12562 25549 ft 482 kts 350°
2026-05-07 12:16 -0.07399 104.11912 24931 ft 478 kts 350°
2026-05-07 12:16 -0.04145 104.11267 24305 ft 475 kts 350°
2026-05-07 12:16 -0.00918 104.10626 23686 ft 471 kts 350°
2026-05-07 12:17 0.02281 104.09991 23012 ft 468 kts 350°
2026-05-07 12:17 0.05432 104.09365 22752 ft 453 kts 350°
2026-05-07 12:17 0.08470 104.08761 22621 ft 437 kts 351°
2026-05-07 12:17 0.11396 104.08179 22478 ft 422 kts 351°
2026-05-07 12:18 0.14233 104.07617 22310 ft 409 kts 351°
2026-05-07 12:18 0.16985 104.07071 22129 ft 397 kts 351°
2026-05-07 12:18 0.19621 104.06549 21956 ft 386 kts 351°
2026-05-07 12:18 0.22216 104.06034 21785 ft 375 kts 351°
2026-05-07 12:19 0.24743 104.05532 21553 ft 367 kts 351°
2026-05-07 12:19 0.27227 104.05040 21202 ft 361 kts 351°
2026-05-07 12:19 0.29655 104.04565 20580 ft 353 kts 351°
2026-05-07 12:19 0.32068 104.04094 20196 ft 352 kts 351°
2026-05-07 12:20 0.34455 104.03625 19883 ft 348 kts 351°
2026-05-07 12:20 0.36823 104.03157 19577 ft 346 kts 351°
2026-05-07 12:20 0.39177 104.02691 19272 ft 344 kts 351°
2026-05-07 12:20 0.41491 104.02225 18982 ft 343 kts 351°
2026-05-07 12:21 0.43823 104.01757 18674 ft 341 kts 351°
2026-05-07 12:21 0.46148 104.01293 18370 ft 340 kts 351°
2026-05-07 12:21 0.48462 104.00832 18066 ft 339 kts 351°
2026-05-07 12:21 0.50771 104.00373 17731 ft 337 kts 351°
2026-05-07 12:22 0.53066 103.99917 17433 ft 335 kts 351°
2026-05-07 12:22 0.55347 103.99467 17140 ft 334 kts 351°
2026-05-07 12:22 0.57617 103.99019 16897 ft 329 kts 352°
2026-05-07 12:22 0.59833 103.98580 16732 ft 319 kts 351°
2026-05-07 12:23 0.61950 103.98157 16572 ft 310 kts 351°
2026-05-07 12:23 0.64036 103.97748 16394 ft 301 kts 352°
2026-05-07 12:23 0.66064 103.97355 16100 ft 292 kts 352°
2026-05-07 12:23 0.68039 103.96966 15864 ft 288 kts 351°
2026-05-07 12:24 0.70005 103.96572 15634 ft 287 kts 353°
2026-05-07 12:24 0.72017 103.96347 15606 ft 302 kts
2026-05-07 12:24 0.74143 103.96719 15599 ft 323 kts 21°
2026-05-07 12:24 0.76290 103.97531 15405 ft 333 kts 25°
2026-05-07 12:25 0.78445 103.98439 14879 ft 336 kts 26°
2026-05-07 12:25 0.80535 103.99328 14672 ft 327 kts 26°
2026-05-07 12:25 0.82598 104.00203 14500 ft 317 kts 25°
2026-05-07 12:25 0.84605 104.01043 14210 ft 311 kts 25°
2026-05-07 12:26 0.86608 104.01888 13771 ft 312 kts 25°
2026-05-07 12:26 0.88601 104.02732 13394 ft 310 kts 25°
2026-05-07 12:26 0.90589 104.03574 12891 ft 311 kts 25°
2026-05-07 12:26 0.92559 104.04409 12611 ft 304 kts 25°
2026-05-07 12:27 0.94493 104.05228 12283 ft 300 kts 25°
2026-05-07 12:27 0.96406 104.06039 11871 ft 299 kts 25°
2026-05-07 12:27 0.98292 104.06841 11047 ft 300 kts 25°
2026-05-07 12:27 1.00242 104.07673 9893 ft 309 kts 25°
2026-05-07 12:28 1.02250 104.08530 8726 ft 320 kts 25°
2026-05-07 12:28 1.04305 104.09403 8214 ft 318 kts 25°
2026-05-07 12:28 1.06306 104.10251 8025 ft 306 kts 25°
2026-05-07 12:28 1.08230 104.11065 7835 ft 295 kts 25°
2026-05-07 12:29 1.10098 104.11856 7539 ft 289 kts 25°
2026-05-07 12:29 1.11939 104.12635 7191 ft 286 kts 25°
2026-05-07 12:29 1.13729 104.13392 7035 ft 277 kts 25°
2026-05-07 12:29 1.15455 104.14116 7017 ft 261 kts 24°
2026-05-07 12:30 1.17098 104.14800 6892 ft 252 kts 24°
2026-05-07 12:30 1.18705 104.15472 6611 ft 250 kts 24°
2026-05-07 12:30 1.20305 104.16143 6306 ft 249 kts 24°
2026-05-07 12:30 1.21901 104.16815 5992 ft 248 kts 24°
2026-05-07 12:31 1.23490 104.17488 5679 ft 247 kts 24°
2026-05-07 12:31 1.25070 104.18156 5366 ft 246 kts 24°
2026-05-07 12:31 1.26624 104.18815 5068 ft 245 kts 24°
2026-05-07 12:31 1.28191 104.19480 4770 ft 244 kts 24°
2026-05-07 12:32 1.29753 104.20142 4460 ft 243 kts 24°
2026-05-07 12:32 1.31305 104.20800 4159 ft 242 kts 24°
2026-05-07 12:32 1.32920 104.21219 4005 ft 240 kts
2026-05-07 12:32 1.34561 104.21057 4000 ft 236 kts 350°
2026-05-07 12:33 1.37780 104.20368 3480 ft 238 kts 348°
2026-05-07 12:33 1.39399 104.20013 3159 ft 238 kts 348°
2026-05-07 12:33 1.40993 104.19663 2853 ft 237 kts 348°
2026-05-07 12:34 1.42600 104.19311 2586 ft 235 kts 348°
2026-05-07 12:34 1.44164 104.18969 2500 ft 223 kts 348°
2026-05-07 12:34 1.45621 104.18617 2499 ft 209 kts 343°
2026-05-07 12:34 1.46984 104.18157 2515 ft 206 kts 341°
2026-05-07 12:35 1.48318 104.17675 2513 ft 203 kts 341°
2026-05-07 12:35 1.49644 104.17190 2512 ft 203 kts 341°
2026-05-07 12:35 1.50968 104.16706 2515 ft 203 kts 340°
2026-05-07 12:35 1.52293 104.16222 2513 ft 203 kts 341°
2026-05-07 12:36 1.53617 104.15739 2512 ft 203 kts 340°
2026-05-07 12:36 1.54881 104.15126 2496 ft 204 kts 322°
2026-05-07 12:36 1.55742 104.14054 2516 ft 199 kts 297°
2026-05-07 12:36 1.56295 104.12790 2515 ft 200 kts 291°
2026-05-07 12:37 1.56784 104.11485 2498 ft 201 kts 289°
2026-05-07 12:37 1.56865 104.10101 2510 ft 202 kts 256°
2026-05-07 12:37 1.56250 104.08862 2521 ft 199 kts 234°
2026-05-07 12:37 1.55408 104.07765 2512 ft 199 kts 231°
2026-05-07 12:38 1.54529 104.06694 2512 ft 199 kts 231°
2026-05-07 12:38 1.53482 104.05792 2519 ft 200 kts 210°
2026-05-07 12:38 1.52224 104.05219 2516 ft 198 kts 201°
2026-05-07 12:38 1.50962 104.04696 2501 ft 192 kts 204°
2026-05-07 12:39 1.49793 104.04186 2539 ft 178 kts 204°
2026-05-07 12:39 1.48697 104.03707 2349 ft 173 kts 204°
2026-05-07 12:39 1.47599 104.03233 2093 ft 170 kts 203°
2026-05-07 12:39 1.46541 104.02776 1881 ft 161 kts 203°
2026-05-07 12:40 1.45539 104.02344 1669 ft 153 kts 203°
2026-05-07 12:40 1.44585 104.01918 1426 ft 149 kts 204°
2026-05-07 12:40 1.43667 104.01495 1251 ft 142 kts 204°
2026-05-07 12:40 1.42769 104.01085 1026 ft 140 kts 203°
2026-05-07 12:41 1.41871 104.00720 880 ft 140 kts 201°
2026-05-07 12:41 1.40976 104.00334 737 ft 140 kts 203°
2026-05-07 12:41 1.40075 103.99953 566 ft 140 kts 201°
2026-05-07 12:41 1.39188 103.99579 371 ft 140 kts 203°
2026-05-07 12:42 1.38306 103.99190 211 ft 139 kts 202°
2026-05-07 12:42 1.37418 103.98815 52 ft 138 kts 201°
2026-05-07 12:42 1.36596 103.98468 37 ft 110 kts 203°
2026-05-07 12:42 1.36032 103.98227 37 ft 67 kts 203°
2026-05-07 12:43 1.35717 103.98116 37 ft 38 kts 187°
2026-05-07 12:43 1.35535 103.98140 37 ft 12 kts 134°
2026-05-07 12:43 1.35536 103.98197 37 ft 8 kts 48°
2026-05-07 12:43 1.35583 103.98228 37 ft 9 kts 25°
2026-05-07 12:44 1.35651 103.98258 37 ft 12 kts 23°
2026-05-07 12:44 1.35737 103.98294 37 ft 15 kts 21°
2026-05-07 12:44 1.35853 103.98342 37 ft 23 kts 22°
2026-05-07 12:44 1.36008 103.98407 37 ft 25 kts 22°
2026-05-07 12:45 1.36175 103.98479 37 ft 27 kts 23°
2026-05-07 12:45 1.36355 103.98555 37 ft 29 kts 23°
2026-05-07 12:45 1.36546 103.98637 37 ft 31 kts 23°
2026-05-07 12:45 1.36749 103.98719 37 ft 32 kts 22°
2026-05-07 12:46 1.36842 103.98775 37 ft 8 kts 68°
2026-05-07 12:46 1.36840 103.98788 37 ft 0 kts 108°
2026-05-07 12:46 1.36836 103.98800 37 ft 6 kts 109°
2026-05-07 12:46 1.36808 103.98873 37 ft 7 kts 113°
2026-05-07 12:47 1.36807 103.98874 37 ft 0 kts 113°
2026-05-07 12:47 1.36806 103.98876 37 ft 2 kts 113°
2026-05-07 12:47 1.36788 103.98919 37 ft 10 kts 112°
2026-05-07 12:47 1.36765 103.98973 37 ft 14 kts 113°
2026-05-07 12:48 1.36707 103.99108 37 ft 18 kts 112°
2026-05-07 12:48 1.36655 103.99229 37 ft 20 kts 113°
2026-05-07 12:48 1.36598 103.99364 37 ft 22 kts 112°
2026-05-07 12:48 1.36535 103.99511 37 ft 17 kts 113°
2026-05-07 12:49 1.36521 103.99542 37 ft 5 kts 113°
2026-05-07 12:49 1.36519 103.99546 37 ft 0 kts 113°
2026-05-07 12:49 1.36507 103.99575 37 ft 8 kts 114°
2026-05-07 12:50 1.36482 103.99633 37 ft 11 kts 113°
2026-05-07 12:50 1.36444 103.99699 37 ft 7 kts 147°
2026-05-07 12:50 1.36382 103.99683 37 ft 13 kts 207°
2026-05-07 12:50 1.36326 103.99655 37 ft 14 kts 205°
2026-05-07 12:51 1.36226 103.99614 37 ft 17 kts 202°
2026-05-07 12:51 1.36110 103.99566 37 ft 19 kts 202°
2026-05-07 12:51 1.35981 103.99512 37 ft 18 kts 203°
2026-05-07 12:51 1.35958 103.99473 37 ft 6 kts 281°
2026-05-07 12:52 1.35991 103.99396 37 ft 16 kts 297°
2026-05-07 12:52 1.36010 103.99354 37 ft 3 kts 286°
2026-05-07 12:52 1.36008 103.99325 37 ft 5 kts 250°
2026-05-07 12:52 1.35975 103.99299 37 ft 6 kts 218°
2026-05-07 12:53 1.35966 103.99267 37 ft 4 kts 275°
2026-05-07 12:53 1.35978 103.99246 34 ft 4 kts 301°
2026-05-07 12:53 1.35990 103.99223 37 ft 0 kts 295°